Timeline UpdatesTrip UpdatesNews PostsPvt Posts♥♥Travel TipsAdmin PostsConv PostsFollowed PostsChat RequestsBlog PostsPNR Posts

Disclaimer
Search
 
 
Thu Nov 27, 2014 08:22:40 ISTHomeTrainsΣChainsAtlasPNRForumGalleryNewsFAQTripsMembersLoginFeedback
No Recent News for this Train
Other Trains in the News **new
Latest...
..
Tue Aug 26, 2014 (08:49PM)
⇐ Return Journey: Train# 13134

13133/Sealdah - Varanasi (Upper India) Express

Time-Table HAS CHANGED.
Sep 03 2014 (2:44PM)
Change Departure Station:
Change Arrival Station:
Post a Train Travel TipPost a Train Travel Tip **new
Post a Comment/Question/Picture/VideoPost a Comment/Question/Picture/Video
Pantry/Catering
✕ NO Pantry Car
✕ NO Catering
RSA - Rake Sharing
13119/Sealdah - Old Delhi Express
Rake/Coach Composition
LOCO-SLR-GS-GS-GS-GS-GS-GS-B1-S1-S2-S3-S4-GS-GS-SLR
Loco
BWN WDM-3A
News    PNR    Forum    Time-Table    Availability    Fare Chart    Map    Arr/Dep History    Trips    Gallery    ΣChains    X/O    Timeline    
Travel Time: 24h 25m    80 halts    Distance: 871 km    Avg Speed: 35 km/hr
Type: Mail/Express
Zone: ER/Eastern
Departs @ 21:15 (Avg on time)
Platform# 7
 MTW FS
Kolkata Sealdah/SDAH 
Arrives @ 21:40 +1 night (Avg 32m late)
Platform# ???
S TWT S
Varanasi Junction/BSB 

80 halts. 207 intermediate Stations between Kolkata Sealdah and Varanasi Junction

Show ALL intermediate Stations  Show Old Time-Table

#TrkCodeStation NameX/OArrivesAvgDepartsAvgHaltPFDay#KmSpeedElevZoneAddress
1/==/SDAHKolkata Sealdah (20)»  -21:15+0710.0258mERPh : 033-23503535 (For North: APC Roy Road) Kolkata 700014, West Bengal
2/==/BNXRBidhan Nagar Road (4)  21:23+021:24+01m213.3378mERKolkata, West Bengal
3/==/DAKEDakhineswar (2)  21:39-21:40-1m1112.76910mERDist - 24 paraganas ( North ), West Bengal
4/==/BWNBarddhaman Junction (8)X  22:57+423:02+45m11101.46034mERDist - Barddhaman, West Bengal
5%==%GKHGuskara (2)  23:35+823:36+81m11134.24541mERDist - Bardhaman, West Bengal
6%==%BHPBolpur Shantiniketan (3)X  00:01+200:06+35m12153.13259mERDist - Birbhum, West Bengal
7%==%PNEPrantik (3)  00:14+400:15+51m12157.45748mERDist - Birbhum, West Bengal
8%==%AMPAhmadpur Junction (3)  00:31+500:32+61m12172.65346mERDist - Birbhum, West Bengal
9%==%SNTSainthia Junction (4)X  00:47+400:48+51m32185.96058mERDist - Birbhum, West Bengal
10%==%RPHRampurhat (3)X  01:16+701:21+115m32213.95041mERDIST - Birbhum, West Bengal
11%==%NHTNalhati Junction (4)X  01:38+1801:40+172m32227.97048mERDist - Birbhum, West Bengal
12%==%MRRMurarai (3)  01:54+1801:55+251m12244.22836mERDist - Birbhum, West Bengal
13%==%RJGRajgram (3)X  02:20+1302:21+141m32255.84932mERDist - Birbhum, West Bengal
14%==%PKRPakur (2)X  02:34+1302:35+131m12266.43337mERDist:- Pakur, Jharkhand
15%==%KLPKotalpukur (3)  02:57+502:58+71m--2278.43740mERKotalpukur, Jharkhand
16|==|BHWBarharwa Junction (3)X  03:21+903:26+105m12292.57136mERBarharwa, Jharkhand
17|==|TPHTinpahar Junction (3)  03:39 03:40+1503:40 03:41+171m12309.15345mERBamangawan, Jharkhand
18|==!TLJTaljhari  03:49 03:52+2303:51 03:53+252 1m--2318.86438mERTaljhari, Jharkhand
19!==!SLJSakrigali Junction (3)  04:08 04:12+2604:10 04:13+292 1m--2339.12745mERSakrigali, Jharkhand
20!==!SBGSahibganj Junction (3)X  04:30+2604:38 04:37+308 7m22346.96538mERSahibganj, Jharkhand
21!==!MZCMirza Cheuki (3)  04:51+3504:53 04:52+382 1m12362.05138mERBihar, Bihar
22!==!PPTPirpainti (2)  05:02+3905:04 05:03+402 1m--2370.44453mERBhagalpur, Bihar
23!==!SVRPShivanarayanpur (2)  05:15+4105:17 05:16+422 1m--2379.32347mERShivanarayanpur, Bihar
24!==!BKSLBikram Shila (2)  05:25+4005:27 05:26+412 1m--2382.84458mERBikram Shila, Bihar
25!==!CLGKahalgaon (2)X  05:46 05:37+4005:48 05:38+442 1m22390.83344mERBhagalpur, Bihar
26!==!EKCEkchari (1)  05:55 05:46+4405:57 05:47+452 1m12395.24337mERNational Highway 80, Bihar
27!==!GGAGhoga (2)  06:04 05:55+4306:06 05:56+442 1m--2400.94742mERGhoga, Bihar
28!==!SBOSabaur (3)  06:21 06:12+4806:23 06:13+492 1m--2413.32042mERSabour, Bihar
29!==|BGPBhagalpur Junction (6)  06:36+3606:51+3115m--2420.94049mERBhagalpur, Bihar
30|==|NATNathnagar (2)X  06:57 06:58+3706:59+382 1m--2425.53748mERBhagalpur, Bihar
31|==|MPYMurarpur (2)  07:07-07:08-1m--2430.53938mERMau, Bihar
32|==|AKNAkbarnagar (3)  07:15 07:16+3507:17+362 1m--2435.75539mERTilakpur, Bihar
33|==|SGGSultanGanj (3)  07:28+3607:29+371m--2445.84742mERSultanganj, Bihar
34|==|BUPBariarpur (3)X  07:52+3307:54+322m--2463.73642mERMunger, Bihar
35|=-|RPURRatanpur (2)  08:01 08:02+3108:03+322 1m--2468.62246mERRatanpur Railway Station, Bihar
36|-=|JMPJamalpur Junction (4)X  08:20+2608:35+2315m--2474.93859mERDist: Munger 06344-243101, Bihar
37|==|DRTPDasharathpur (2)  08:44 08:45+2508:46+252 1m--2481.24148mERDharhara, Bihar
38|==|DRHDharhara (2)X  08:53 08:54+2408:55+252 1m--2486.75055mERDharhara, Bihar
39|==|AHAAbhaipur (3)  09:06 09:07+2409:08+252 1m--2496.74452mERAbhaipur, Bihar
40!==|KJHKajra (2)  09:17 09:18+2409:19+252 1m--2504.01550mERLakhisarai District, Bihar
41|=-|KIULKiul Junction (5)X  10:22-110:30+18m--2519.71453mECRDist. Lakhisarai, Bihar
42/==/LKRLuckeesarai Junction (2)X  10:36+310:38+32m--2521.15352mECRLakhisarai, Bihar
43/==/BRYABarhiya (3)X  10:55+810:57+112m--2536.27047mECRBarahiya, Bihar
44/==/HTZHathidah Junction (2)  11:05+1611:07+162m22545.54250mECRMusahari, Bihar
45/==/MKAMokama Junction (4)  11:19+1511:21+292m--2553.98848mECRPatna, Bihar
46/==/MORMor (2)X  11:26+3511:28+352m--2561.26146mECRMor, Bihar
47/==/PHKPunarakh (2)  11:36+3511:38+482m--2569.46851mECRPunarakh, Bihar
48/==/BARHBarh (3)X  11:47+4411:49+472m--2579.76849mECRBarh, Bihar
49/==/ATLAthmal Gola (2)O  11:57+5411:59+552m--2588.71552mECRPatna, Bihar
50/==/BKPBakhtiyarpur Junction (5)X  12:10 12:35+2912:12 12:37+372m--2597.89051mECRPatna, Bihar
51/==/KWOKarauta (2)X  12:18 12:43+4212:20 12:45+432m--2606.85052mECRKarauta, Bihar
52/==/KOOKhusropur (2)  12:27 12:52+4512:29 12:54+502m--2612.67452mECRPatna, Bihar
53/==/HDEHardas Bigha  12:36 12:59-12:37 13:01-1 2m--2618.72853mECRFatwah, Bihar
54/==/FUTFatwa (6)XO  13:06+5413:08+582m--2621.02053mECRPatna, Bihar
55/==/PNCPatna Saheb (3)O  13:43 13:44+3813:45 13:46+392m--2633.31359mECRPatna 800008, Bihar
56/==/GZHGulzarbagh (3)X  14:00+3414:02+372m--2636.33255mECRPatna, Bihar
57/==/RJPBRajendra Nagar Bihar (4)  14:10+3614:12+382m--2640.52055mECRPatna 800001, Bihar
58/==/PNBEPatna Junction (10)  14:20+4014:30+4010m42643.23657mECRPatna 800001, Bihar
59/==/PWSPhulwari Sharif (3)  14:40+4414:42+452m--2649.12658mECRPatna, Bihar
60/==/DNRDanapur (5)X  14:50+3615:00+3710m--2652.59158mECRKhagaul, Bihar
61/==/NEONeora (2)X  15:04+4415:06+452m--2658.66161mECRNational Highway 98, Bihar
62/==/SDESadisopur (2)X  15:13-15:14-1m--2665.75164mECRSadisopur, Bihar
63/==/BTABihta (2)X  15:19+4515:21+472m--2669.96362mECRDistt: Patna, Bihar
64/==/VHCHChakki Block Cabin  15:28 15:27+5215:30 15:29+512m--2676.23763mECRNational Highway 30, Bihar
65/==/KWRKoelwar (2)  15:33+5:1815:35+5:182m--2678.63665mECRNational Highway 30, Bihar
66/==/KUAKulharia (2)X  15:41+5015:43+522m--2682.24061mECRChandi Sahar Rd, Bihar
67/==/ARAAra Junction (3)  15:58+4016:03+425m--2692.18563mECRDistt: Bhojpur Ph 06182-233411, Bihar
68/==/KRSKarisath (2)  16:11 16:10+5216:13 16:12+592m--2702.07765mECRKarisath, Bihar
69/==/BEABihiya (3)  16:22 16:21+5616:24 16:23+582m--2713.55967mECRBehea, Bihar
70/==/BYNBanahi (2)  16:30 16:29+1:0616:32 16:31+1:062m--2719.46667mECRBanahi, Bihar
71/==/RPRRaghunathpur (4)  16:40 16:39+1:0316:42 16:41+1:092m--2728.37269mECRRaghunathpur, Bihar
72/==/TWGTwining Ganj16:52 16:48+1:1116:54 16:50+1:102m--2736.74670mECRArrah Buxar Rd, Bihar
73/==/DUREDumraon (3)X  16:54 17:00+1:0516:56 17:02+1:092m--2744.23670mECRDumraon, Bihar
74/==/BXRBuxar (3)  17:17 17:29+1:0117:22 17:34+1:025m--2760.610967mECRBuxar, Bihar
75/==/CSAChausa (2)X  17:30 17:40+1:1317:32 17:42+1:182m--2771.59268mECRState Highway 14, Bihar
76/==/GMRGahmar (2)X  17:44 17:48+1:2317:46 17:50+1:232m--2780.86168mECRDistt: Ghazipur, Uttar Pradesh
77/==/BWHBhadaura (2)  17:53 17:58+1:1917:55 18:00+1:262m--2788.94769mECRGhazipur, Uttar Pradesh
78/==/DLNDildarnagar Junction (2)  18:05 18:10+1:3018:10 18:15+1:295m--2796.88172mECRDildarnagar, Uttar Pradesh
79/==/ZNAZamania (2)  18:20 18:25+1:2818:22 18:27+1:322m--2810.32277mECRGhazipur, Uttar Pradesh
80/==/SLDSakaldiha (2)XO  19:40 19:39+5019:41+511 2m--2836.31981mECRState Highway 69, Uttar Pradesh
81/==/MGSMughal Sarai Junction (8)X  20:40+1:0020:50+1:0410m32854.52083mECRDistt: Chandauli Pin 232101, Uttar Pradesh
82/==/BSBVaranasi Junction (9)•  21:40+32---2870.9-82mNRVaranasi 221002, Uttar Pradesh
Scroll to Top
Scroll to Bottom